This is the latest recevied weather packets stored in our database for station/object N6WDO. If no packets are shown the sender has not sent any weather packets the latest 1 day(s).
| Time | Temp. | Humidity | Pressure | Rain* | Wind** | Luminosity | Snow |
|---|---|---|---|---|---|---|---|
| 1778074230 | 6.11° C | 99% | 1021.5 hPa | 0 mm | - | 16 W/m² | - |
| 1778073927 | 6.11° C | 99% | 1021 hPa | 0 mm | - | 14 W/m² | - |
| 1778071808 | 6.67° C | 99% | 1020.6 hPa | 0 mm | - | 1 W/m² | - |
| 1778070901 | 6.11° C | 99% | 1020.6 hPa | 0 mm | - | 0 W/m² | - |
| 1778070295 | 6.67° C | 99% | 1020.6 hPa | 0 mm | - | 0 W/m² | - |
| 1778067573 | 6.11° C | 99% | 1020.5 hPa | 0 mm | - | 0 W/m² | - |
| 1778067271 | 6.11° C | 99% | 1020.5 hPa | 0 mm | - | 0 W/m² | - |
| 1778066967 | 6.67° C | 99% | 1020.6 hPa | 0 mm | - | 0 W/m² | - |
| 1778066665 | 6.11° C | 99% | 1020.6 hPa | 0 mm | - | 0 W/m² | - |
| 1778066060 | 6.67° C | 99% | 1020.4 hPa | 0 mm | - | 0 W/m² | - |
| 1778064847 | 6.67° C | 99% | 1020.4 hPa | 0 mm | - | 0 W/m² | - |
| 1778063940 | 6.67° C | 99% | 1020.1 hPa | 0 mm | - | 0 W/m² | - |
| 1778063637 | 6.67° C | 99% | 1020.2 hPa | 0 mm | - | 0 W/m² | - |
| 1778063334 | 6.67° C | 99% | 1019.9 hPa | 0 mm | - | 0 W/m² | - |
| 1778062729 | 6.11° C | 99% | 1019.9 hPa | 0 mm | - | 0 W/m² | - |
| 1778062123 | 6.67° C | 99% | 1020 hPa | 0 mm | - | 0 W/m² | - |
| 1778060913 | 7.22° C | 99% | 1019.7 hPa | 0 mm | - | 0 W/m² | - |
| 1778060612 | 6.67° C | 99% | 1020 hPa | 0 mm | - | 0 W/m² | - |
| 1778059704 | 7.22° C | 99% | 1020 hPa | 0 mm | - | 0 W/m² | - |
| 1778059402 | 7.22° C | 99% | 1020 hPa | 0 mm | - | 0 W/m² | - |
| 1778058796 | 7.22° C | 99% | 1020.2 hPa | 0 mm | - | 0 W/m² | - |
| 1778058494 | 6.67° C | 98% | 1020.1 hPa | 0 mm | - | 0 W/m² | - |
| 1778058191 | 6.67° C | 98% | 1020.3 hPa | 0 mm | - | 0 W/m² | - |
| 1778056976 | 7.22° C | 98% | 1020.2 hPa | 0 mm | - | 0 W/m² | - |
| 1778055462 | 7.78° C | 98% | 1020.2 hPa | 0 mm | - | 0 W/m² | - |
* Rain latest hour (hover to see other rain measurements)
** Current wind speed in m/s (hover to see current wind gust speed)